Regional Weather Roundup
Issued by NWS

Home | Current Version | Previous Version | Graphics & Text | Print | Product List | Glossary On
Versions: 1 2 3 4 5 6 7 8 9 10 11 12 13 14 15 16 17 18 19 20 21 22 23 24 25 26 27 28 29 30 31 32 33 34 35 36 37 38 39 40 41 42 43 44 45 46 47 48 49 50
978
ASUS43 KLOT 041658
RWRIL

ILLINOIS REGIONAL WEATHER ROUNDUP
NATIONAL WEATHER SERVICE CHICAGO/ROMEOVILLE IL
1100 AM CST SUN DEC 04 2016

NOTE: "FAIR" INDICATES FEW OR NO CLOUDS BELOW 12,000 FEET WITH NO
SIGNIFICANT WEATHER AND/OR OBSTRUCTIONS TO VISIBILITY.

* THESE STATIONS ARE NOT UNDER NWS QUALITY CONTROL. THEY ALSO MAY NOT
  REPORT WEATHER SUCH AS PRECIPITATION OR FOG.

ILZ001-002-007-009-015-016-024-041800-
NORTHWEST ILLINOIS

CITY           SKY/WX    TMP DP  RH WIND       PRES   REMARKS
MOLINE         NOT AVBL
$$

ILZ003-004-008-010-011-017-018-041800-
NORTH CENTRAL ILLINOIS

CITY           SKY/WX    TMP DP  RH WIND       PRES   REMARKS
ROCKFORD       SNOW      31  29  92 SE8       30.08F VSB 1/4 WCI  23
$$

ILZ005-006-012>014-019>023-041800-
NORTHEAST ILLINOIS

CITY           SKY/WX    TMP DP  RH WIND       PRES   REMARKS
CHICAGO-OHARE  SNOW      32  30  92 S5        30.06F VSB 1/2 WCI  27
CHICAGO-MIDWAY LGT SNOW  34  27  75 E3        30.06F
AURORA         NOT AVBL
WAUKEGAN       SNOW      33  30  88 CALM      30.06F VSB 1/2
DUPAGE AIRPORT SNOW      31  28  89 E6        30.06F VSB 1/2 WCI  25
WHEELING       NOT AVBL
NORTHERLY ISL    N/A     35  29  79 SE9         N/A  WCI  28
$$

LMZ740>746-041800-
SOUTHERN LAKE MICHIGAN

STATION/POSITION SKY/WX   TEMP    WIND        PRES    VSBY  WAVE
                          AIR SEA DIR/SP/G                  HT/PER
                          (F)     (DEG/KT/KT) (MB)    (MI)  (FT/S)
SOUTHERN BUOY              38 48  140/ 14/ 17 1020.2F         0
HARRISON CRIB              36     120/ 10/ 11   N/A
BURNHAM HARBOR             35     150/  9/  9   N/A
CALUMET HARBOR             35     120/  9/ 11 1017.7F
BURNS HARBOR               34     100/  8/ 11 1018.3F
$$

ILZ025>027-034>036-040-047-049-050-058-095>099-041800-
WEST-CENTRAL ILLINOIS

CITY           SKY/WX    TMP DP  RH WIND       PRES   REMARKS
QUINCY         SNOW      34  32  93 E8        29.99F VSB 1/2 WCI  27
$$

ILZ028>032-037-038-041>044-048-051>054-059>061-041800-
CENTRAL ILLINOIS

CITY           SKY/WX    TMP DP  RH WIND       PRES   REMARKS
BLOOMINGTON    SNOW      32  30  93 E8        30.02F VSB 1/2 WCI  25
PEORIA         NOT AVBL
SPRINGFIELD    SNOW      34  32  92 CALM      30.01F VSB 1/2
TAYLORVILLE    NOT AVBL
$$

ILZ033-039-045-046-055>057-062-063-041800-
EAST-CENTRAL ILLINOIS

CITY           SKY/WX    TMP DP  RH WIND       PRES   REMARKS
$$

ILZ079-100>102-041800-
SOUTHWEST ILLINOIS

CITY           SKY/WX    TMP DP  RH WIND       PRES   REMARKS
$$

ILZ064>066-069>071-074>076-080>082-084>086-088>090-092>094-041800-
SOUTH-CENTRAL ILLINOIS

CITY           SKY/WX    TMP DP  RH WIND       PRES   REMARKS
CARBONDALE     LGT RAIN  41  41 100 S7        30.00F FOG
MARION         DRZL/FOG  41  41 100 S5        30.01F VSB 1
$$

ILZ067-068-072-073-078-083-087-091-041800-
SOUTHEAST ILLINOIS

CITY           SKY/WX    TMP DP  RH WIND       PRES   REMARKS
$$

ABBREVIATIONS USED IN REMARKS
   TC - TEMPERATURE IN CELSIUS
  WCI - WIND CHILL INDEX
   HX - HEAT INDEX
  VSB - VISIBILITY
$$





USA.gov is the U.S. government's official web portal to all federal, state and local government web resources and services.